Location: Smoky Mountain Stargaze
(35.4252°N, 83.3329°W)
Time: 21:56:02
(UTC-04:00)

Amateur Radio Satellites - All Passes

Search period start: 25 September 2016 21:26
Search period end: 26 September 2016 21:26
Location: Smoky Mountain Stargaze, 35.4252°N, 83.3329°W

Satellite Date Start Highest point End Downlink Frequencies (MHz)
Time Altitude Azimuth
CUSAT 1 25 Sep 21:28:17 21:33:20 29° 291° (WNW) 21:39:26 437.405
CUTE 1.7 + AOD 2 25 Sep 21:37:14 21:40:31 22° 265° (W) 21:43:51 437.475
CANX-2 25 Sep 21:38:19 21:41:18 19° 266° (W) 21:44:18 2200.000
ISS 25 Sep 21:39:30 21:42:45 80° 137° (SE) 21:46:00 145.825
SEEDS 25 Sep 21:43:05 21:46:38 27° 264° (W) 21:50:15 437.485
HO-68 25 Sep 21:44:08 21:50:26 33° 263° (W) 21:56:46 435.675
AO-85 25 Sep 21:49:09 21:54:08 42° 114° (ESE) 21:58:51 145.980
Cosmos 2499 25 Sep 21:56:44 22:04:05 56° 268° (W) 22:12:00 435.465 / 435.565
CUBEBUG 2 25 Sep 22:00:43 22:04:34 33° 262° (W) 22:08:22 437.445
HUMSAT D 25 Sep 22:06:41 22:09:22 17° 68° (ENE) 22:12:03 437.325/437.525
PRISM 25 Sep 22:09:58 22:13:58 48° 100° (E) 22:17:56 437.425
JUGNU 25 Sep 22:11:23 22:14:21 14° 171° (S) 22:17:19 437.505
AAUSAT CUBESAT 2 25 Sep 22:13:19 22:16:36 23° 265° (W) 22:19:56 437.432
FUNcube-1 25 Sep 22:18:13 22:22:18 58° 260° (W) 22:26:22 145.935
DELFI C3 25 Sep 22:18:51 22:22:44 52° 75° (ENE) 22:26:38 145.870
GONETS M04 25 Sep 22:22:59 22:30:41 36° 274° (W) 22:38:21
UWE-3 25 Sep 22:24:26 22:28:01 27° 263° (W) 22:31:35 435.000/436.395/437.385
DANDE 25 Sep 22:37:09 22:40:16 16° 297° (WNW) 22:43:55 436.750
TIGRISAT 25 Sep 22:48:27 22:50:54 15° 94° (E) 22:53:21 435.000
ZACube-1 25 Sep 23:00:23 23:03:08 17° 266° (W) 23:05:53 437.345
Oscar 11 25 Sep 23:02:59 23:05:50 17° 266° (W) 23:08:44 145.826/435.025
ISS 25 Sep 23:17:53 23:19:36 13° 334° (NNW) 23:21:20 145.825
UNISAT 6 25 Sep 23:26:45 23:30:58 44° 99° (E) 23:35:15 437.425
AO-85 25 Sep 23:30:30 23:34:41 24° 308° (NW) 23:38:42 145.980
RS-15 25 Sep 23:34:27 23:44:19 30° 322° (NW) 23:54:35 29.354- 29.394
HUMSAT D 25 Sep 23:41:07 23:44:43 30° 263° (W) 23:48:21 437.325/437.525
ESTCUBE 1 25 Sep 23:41:34 23:45:39 34° 72° (ENE) 23:49:45 437.505/2401.250
M-CUBED/EXP-1 PRIME 25 Sep 23:46:07 23:49:10 20° 66° (ENE) 23:52:06 437.505
PRISM 25 Sep 23:47:16 23:48:48 12° 295° (WNW) 23:50:20 437.425
VELOX 1 25 Sep 23:52:02 23:55:26 22° 69° (ENE) 23:58:49 145.980
DX 1 25 Sep 23:53:25 23:55:39 14° 66° (ENE) 23:57:52 434.975-435.025
JUGNU 25 Sep 23:58:55 00:02:36 17° 181° (S) 00:06:17 437.505
CUBEBUG 1 26 Sep 00:01:51 00:05:52 35° 72° (ENE) 00:09:55 437.445
ANTELSAT 26 Sep 00:02:08 00:06:31 71° 283° (WNW) 00:11:00 437.575/2403.000
NANOSAT C BR1 26 Sep 00:07:49 00:09:47 13° 93° (E) 00:11:45 145.865
TIGRISAT 26 Sep 00:23:34 00:27:42 42° 287° (WNW) 00:31:55 435.000
QB50P2 26 Sep 00:27:32 00:31:06 26° 97° (E) 00:34:40 145.880/145.840
POLYITAN 1 26 Sep 00:29:45 00:33:20 26° 97° (E) 00:36:54 437.675
50 SAT 26 Sep 00:31:15 00:34:47 55° 76° (ENE) 00:38:22 437.505
AISAT 26 Sep 00:43:14 00:47:42 89° 91° (E) 00:52:11 437.250
AUBIESAT-1 26 Sep 00:43:58 00:48:11 79° 72° (ENE) 00:52:07 437.475
SO-50 26 Sep 00:44:00 00:47:10 18° 48° (NE) 00:50:15 436.795
SRMSAT 26 Sep 00:51:14 00:54:28 15° 172° (S) 00:57:43 437.500
SPROUT 26 Sep 00:53:47 00:57:57 56° 75° (ENE) 01:02:09 437.525
JAS-2 26 Sep 00:55:22 01:02:54 47° 97° (E) 01:10:02 435.910
UKube-1 26 Sep 01:02:59 01:07:16 67° 75° (ENE) 01:11:34 .
UNISAT 6 26 Sep 01:04:52 01:07:18 15° 293° (WNW) 01:09:45 437.425
QB50P1 26 Sep 01:10:12 01:14:25 85° 100° (E) 01:18:38 145.935-145.965
DUCHIFAT 1 26 Sep 01:10:45 01:14:55 74° 101° (E) 01:19:06 145.980
ESTCUBE 1 26 Sep 01:19:19 01:22:29 19° 266° (W) 01:25:42 437.505/2401.250
M-CUBED/EXP-1 PRIME 26 Sep 01:19:42 01:23:30 30° 257° (WSW) 01:27:06 437.505
BUGSAT 1 26 Sep 01:23:11 01:26:55 36° 99° (E) 01:30:39 437.445
POPSAT HIP 1 26 Sep 01:23:32 01:27:43 67° 284° (WNW) 01:31:53 437.405
DX 1 26 Sep 01:27:11 01:31:23 46° 260° (W) 01:35:38 434.975-435.025
VELOX 1 26 Sep 01:27:48 01:31:41 29° 263° (W) 01:35:35 145.980
BEESAT 3 26 Sep 01:36:47 01:40:09 29° 113° (ESE) 01:43:35 437.485
CUBEBUG 1 26 Sep 01:39:19 01:42:13 17° 266° (W) 01:45:09 437.445
NANOSAT C BR1 26 Sep 01:41:43 01:45:40 41° 287° (WNW) 01:49:37 145.865
JUGNU 26 Sep 01:48:11 01:50:51 13° 191° (S) 01:53:29 437.505
SWISSCUBE 26 Sep 01:51:23 01:51:58 10° 62° (ENE) 01:52:32 437.505
RS-15 26 Sep 01:57:05 02:02:58 14° 357° (N) 02:08:55 29.354- 29.394
BEESAT 26 Sep 02:03:03 02:05:06 13° 64° (ENE) 02:07:10 436.000
QB50P2 26 Sep 02:03:32 02:06:44 21° 291° (WNW) 02:09:54 145.880/145.840
POLYITAN 1 26 Sep 02:05:47 02:08:57 21° 291° (WNW) 02:12:08 437.675
Cosmos 2491 26 Sep 02:08:43 02:16:07 29° 72° (ENE) 02:23:26 435.465 / 435.565
TISAT 1 26 Sep 02:22:32 02:26:42 68° 258° (WSW) 02:30:53 437.305
SO-50 26 Sep 02:23:32 02:27:52 45° 245° (WSW) 02:32:05 436.795
BEESAT 2 26 Sep 02:26:58 02:30:47 55° 116° (ESE) 02:34:41 435.950
Oscar 19 26 Sep 02:39:05 02:44:04 48° 100° (E) 02:49:00 437.125/150
SRMSAT 26 Sep 02:39:11 02:42:53 17° 182° (S) 02:46:35 437.500
JAS-2 26 Sep 02:40:41 02:47:33 35° 294° (WNW) 02:54:12 435.910
BUGSAT 1 26 Sep 02:59:49 03:01:57 14° 293° (WNW) 03:04:04 437.445
YUBILEINY 26 Sep 03:05:43 03:13:02 31° 85° (E) 03:20:20 435.215
ITUPSAT 1 26 Sep 03:10:00 03:14:42 66° 75° (ENE) 03:19:26 437.325
BEESAT 3 26 Sep 03:14:55 03:17:50 20° 309° (NW) 03:20:45 437.485
Gurwin Techsat 1B 26 Sep 03:18:36 03:23:49 54° 100° (E) 03:29:00 435.225
SWISSCUBE 26 Sep 03:24:20 03:29:04 75° 257° (WSW) 03:33:50 437.505
ITAMSAT 1 26 Sep 03:28:35 03:31:52 17° 93° (E) 03:35:07 435.822/435.867
Cosmos 2504 26 Sep 03:33:11 03:35:34 12° 80° (E) 03:37:54 435.465 / 435.565
BEESAT 26 Sep 03:37:40 03:42:20 60° 259° (W) 03:47:03 436.000
MOZHAYETS 4 26 Sep 03:47:26 03:51:08 25° 70° (ENE) 03:54:51
Cosmos 2491 26 Sep 04:04:46 04:13:17 55° 270° (W) 04:21:47 435.465 / 435.565
BEESAT 2 26 Sep 04:07:14 04:08:56 12° 313° (NW) 04:10:39 435.950
ISS 26 Sep 04:10:07 04:12:55 25° 34° (NNE) 04:15:41 145.825
RS-15 26 Sep 04:12:37 04:22:15 25° 33° (NNE) 04:31:45 29.354- 29.394
AO-7 26 Sep 04:13:49 04:20:42 28° 97° (E) 04:27:32 29.400- 29.500
Oscar 19 26 Sep 04:19:33 04:22:58 18° 295° (WNW) 04:26:21 437.125/150
KKS-1 26 Sep 04:28:09 04:32:25 46° 73° (ENE) 04:36:40 437.445
SRMSAT 26 Sep 04:28:57 04:31:17 12° 192° (SSW) 04:33:37 437.500
AIST 2 26 Sep 04:30:24 04:34:11 38° 114° (ESE) 04:38:00 435.215
ITUPSAT 1 26 Sep 04:52:13 04:52:55 10° 269° (W) 04:53:38 437.325
Gurwin Techsat 1B 26 Sep 04:59:57 05:03:16 17° 295° (WNW) 05:06:35 435.225
YUBILEINY 26 Sep 05:00:53 05:09:21 51° 282° (WNW) 05:17:50 435.215
CUBESAT XI-V 26 Sep 05:01:33 05:04:57 20° 68° (ENE) 05:08:22 437.345
PCSat 26 Sep 05:01:50 05:06:46 38° 110° (ESE) 05:11:45 145.827
ITAMSAT 1 26 Sep 05:06:31 05:11:33 50° 288° (WNW) 05:16:35 435.822/435.867
STARS 26 Sep 05:07:45 05:12:04 60° 75° (ENE) 05:16:24 437.465
Cosmos 2504 26 Sep 05:20:18 05:27:53 90° 351° (N) 05:35:07 435.465 / 435.565
MOZHAYETS 4 26 Sep 05:24:20 05:28:09 26° 264° (W) 05:32:00
HORYU 2 26 Sep 05:43:40 05:46:25 16° 94° (E) 05:49:09 437.375
ISS 26 Sep 05:46:30 05:49:23 28° 229° (SW) 05:52:15 145.825
AO-7 26 Sep 06:05:42 06:13:45 56° 293° (WNW) 06:21:46 29.400- 29.500
KKS-1 26 Sep 06:06:58 06:09:10 13° 267° (W) 06:11:22 437.445
AIST 2 26 Sep 06:10:00 06:12:47 17° 310° (NW) 06:15:37 435.215
CUSAT 1 26 Sep 06:23:42 06:30:16 29° 69° (ENE) 06:35:58 437.405
RS-15 26 Sep 06:24:43 06:37:11 77° 59° (ENE) 06:49:15 29.354- 29.394
AO-85 26 Sep 06:25:33 06:27:39 13° 46° (NE) 06:29:41 145.980
AIST 1 26 Sep 06:29:53 06:34:17 80° 277° (W) 06:38:41
BRITE-PL 26 Sep 06:34:13 06:38:32 33° 96° (E) 06:42:33 437.365/2234.400
GOMX 1 26 Sep 06:36:24 06:37:59 12° 91° (E) 06:39:33 467.674
CUBESAT XI-V 26 Sep 06:37:47 06:42:03 35° 262° (W) 06:46:22 437.345
NOAA 15 26 Sep 06:42:12 06:45:54 19° 94° (E) 06:49:33 137.62
PCSat 26 Sep 06:45:42 06:50:13 27° 306° (NW) 06:54:46 145.827
Cubesat XI-IV 26 Sep 06:50:45 06:54:25 19° 94° (E) 06:58:04 437.490
STRAND 1 26 Sep 06:51:28 06:54:14 15° 64° (ENE) 06:57:01 437.568
CUTE-I 26 Sep 06:51:31 06:55:17 19° 94° (E) 06:59:02 437.470
NOAA 18 26 Sep 07:14:26 07:18:54 25° 96° (E) 07:23:22 137.9125
HORYU 2 26 Sep 07:18:56 07:23:04 38° 288° (WNW) 07:27:12 437.375
Cosmos 2504 26 Sep 07:19:08 07:22:07 13° 293° (WNW) 07:25:05 435.465 / 435.565
DANDE 26 Sep 07:32:37 07:40:39 47° 75° (ENE) 07:48:08 436.750
LilacSat-2 26 Sep 07:37:55 07:41:44 63° 101° (E) 07:45:32 437.200
AO-7 26 Sep 08:04:03 08:04:42 10° 312° (NW) 08:05:21 29.400- 29.500
AO-85 26 Sep 08:04:29 08:08:25 48° 244° (WSW) 08:12:08 145.980
CUSAT 1 26 Sep 08:05:14 08:12:33 48° 270° (W) 08:18:42 437.405
O/OREOS (USA 219) 26 Sep 08:09:17 08:13:42 55° 106° (ESE) 08:18:11 437.305
GOMX 1 26 Sep 08:12:12 08:16:25 45° 287° (WNW) 08:20:26 467.674
BRITE-PL 26 Sep 08:13:14 08:16:45 20° 293° (WNW) 08:20:04 437.365/2234.400
NOAA 15 26 Sep 08:20:48 08:25:51 45° 289° (WNW) 08:30:50 137.62
STRAND 1 26 Sep 08:27:52 08:32:51 58° 259° (WSW) 08:37:54 437.568
Cubesat XI-IV 26 Sep 08:29:34 08:34:40 47° 288° (WNW) 08:39:46 437.490
CUTE-I 26 Sep 08:30:24 08:35:29 46° 289° (WNW) 08:40:34 437.470
CINEMA 3 26 Sep 08:33:19 08:36:48 25° 97° (E) 08:40:20 145.822/145.860
RS-15 26 Sep 08:38:58 08:48:22 27° 259° (WSW) 08:57:35 29.354- 29.394
Cosmos 2499 26 Sep 08:40:00 08:44:43 19° 83° (E) 08:49:21 435.465 / 435.565
DOVE 4 26 Sep 08:43:43 08:47:47 49° 286° (WNW) 08:51:46 437.250
NOAA 18 26 Sep 08:54:37 08:59:34 36° 291° (WNW) 09:04:31 137.9125
PRISM 26 Sep 08:56:42 09:00:00 23° 70° (ENE) 09:03:20 437.425
COMPASS 1 26 Sep 09:05:16 09:08:22 20° 94° (E) 09:11:26 437.405
HO-68 26 Sep 09:14:02 09:21:04 58° 102° (ESE) 09:28:04 435.675
DANDE 26 Sep 09:15:45 09:23:10 36° 272° (W) 09:30:06 436.750
GONETS M04 26 Sep 09:22:27 09:30:58 56° 90° (E) 09:39:33
CUTE 1.7 + AOD 2 26 Sep 09:23:55 09:28:14 77° 103° (ESE) 09:32:31 437.475
CANX-2 26 Sep 09:24:45 09:29:05 88° 282° (WNW) 09:33:23 2200.000
SEEDS 26 Sep 09:29:08 09:33:21 59° 100° (E) 09:37:32 437.485
O/OREOS (USA 219) 26 Sep 09:51:15 09:53:28 13° 303° (WNW) 09:55:41 437.305
CUBEBUG 2 26 Sep 09:53:36 09:57:49 58° 101° (E) 10:02:09 437.445
AAUSAT CUBESAT 2 26 Sep 09:57:28 10:01:39 67° 101° (ESE) 10:05:47 437.432
FUNcube-1 26 Sep 10:09:01 10:12:53 31° 97° (E) 10:16:49 145.935
CINEMA 3 26 Sep 10:10:39 10:13:48 21° 290° (WNW) 10:17:00 145.822/145.860
UWE-3 26 Sep 10:15:48 10:20:06 69° 100° (E) 10:24:30 435.000/436.395/437.385
UNISAT 6 26 Sep 10:23:08 10:26:41 26° 71° (ENE) 10:30:14 437.425
Cosmos 2499 26 Sep 10:30:01 10:37:09 61° 279° (W) 10:44:07 435.465 / 435.565
PRISM 26 Sep 10:31:50 10:35:11 23° 264° (W) 10:38:34 437.425
COMPASS 1 26 Sep 10:40:16 10:43:53 28° 289° (WNW) 10:47:28 437.405
BEESAT 2 26 Sep 10:48:47 10:51:03 14° 49° (NE) 10:53:19 435.950
ZACube-1 26 Sep 10:49:35 10:53:54 78° 283° (WNW) 10:58:19 437.345
Oscar 11 26 Sep 10:51:24 10:55:45 77° 284° (WNW) 11:00:06 145.826/435.025
PHONESAT 2.4 26 Sep 10:55:29 10:57:08 14° 144° (SE) 10:58:46 2401.200-2431.200
ANTELSAT 26 Sep 10:57:48 11:02:04 68° 76° (ENE) 11:06:18 437.575/2403.000
HO-68 26 Sep 11:02:46 11:08:16 25° 298° (WNW) 11:13:45 435.675
JAS-2 26 Sep 11:07:09 11:10:21 14° 57° (ENE) 11:13:41 435.910
SEEDS 26 Sep 11:07:48 11:08:29 10° 295° (WNW) 11:09:10 437.485
QB50P2 26 Sep 11:18:27 11:20:42 14° 67° (ENE) 11:22:57 145.880/145.840
TIGRISAT 26 Sep 11:18:53 11:23:09 71° 258° (WSW) 11:27:24 435.000
POLYITAN 1 26 Sep 11:20:42 11:22:56 14° 67° (ENE) 11:25:11 437.675
GONETS M04 26 Sep 11:20:51 11:28:09 28° 288° (WNW) 11:35:32
HUMSAT D 26 Sep 11:26:43 11:30:51 49° 99° (E) 11:35:00 437.325/437.525
CUBEBUG 2 26 Sep 11:32:57 11:33:58 11° 294° (WNW) 11:34:59 437.445
BEESAT 3 26 Sep 11:33:26 11:37:26 90° 311° (NW) 11:41:23 437.485
DELFI C3 26 Sep 11:33:53 11:37:51 58° 284° (WNW) 11:41:46 145.870
FUNcube-1 26 Sep 11:45:48 11:48:54 19° 291° (WNW) 11:52:02 145.935
QB50P1 26 Sep 11:59:31 12:03:27 40° 73° (ENE) 12:07:24 145.935-145.965
DUCHIFAT 1 26 Sep 11:59:37 12:03:24 34° 72° (ENE) 12:07:12 145.980
UNISAT 6 26 Sep 12:00:02 12:03:20 22° 264° (W) 12:06:39 437.425
BUGSAT 1 26 Sep 12:10:42 12:13:31 18° 69° (ENE) 12:16:19 437.445
POPSAT HIP 1 26 Sep 12:12:38 12:16:47 58° 74° (ENE) 12:20:54 437.405
BEESAT 2 26 Sep 12:25:15 12:29:06 46° 245° (WSW) 12:32:56 435.950
PHONESAT 2.4 26 Sep 12:30:01 12:32:57 87° 342° (NNW) 12:35:54 2401.200-2431.200
NANOSAT C BR1 26 Sep 12:30:11 12:34:23 89° 269° (W) 12:38:35 145.865
AISAT 26 Sep 12:37:16 12:40:34 21° 95° (E) 12:43:51 437.250
SPROUT 26 Sep 12:44:44 12:46:22 12° 92° (E) 12:47:59 437.525
JAS-2 26 Sep 12:47:54 12:54:06 88° 76° (ENE) 13:01:14 435.910
QB50P2 26 Sep 12:52:09 12:56:07 40° 261° (W) 13:00:06 145.880/145.840
POLYITAN 1 26 Sep 12:54:24 12:58:21 40° 261° (W) 13:02:20 437.675
UKube-1 26 Sep 12:54:44 12:56:57 14° 93° (E) 12:59:08 .
AIST 2 26 Sep 12:55:51 12:57:41 12° 47° (NE) 12:59:31 435.215
M-CUBED/EXP-1 PRIME 26 Sep 13:02:15 13:04:23 16° 100° (E) 13:06:31 437.505
HUMSAT D 26 Sep 13:04:13 13:06:00 12° 294° (WNW) 13:07:49 437.325/437.525
ESTCUBE 1 26 Sep 13:13:12 13:17:44 71° 284° (WNW) 13:22:13 437.505/2401.250
DX 1 26 Sep 13:18:23 13:22:23 35° 98° (E) 13:26:21 434.975-435.025
VELOX 1 26 Sep 13:20:12 13:24:35 64° 101° (E) 13:28:55 145.980
YUBILEINY 26 Sep 13:22:31 13:24:44 11° 62° (ENE) 13:26:56 435.215
CUBEBUG 1 26 Sep 13:29:09 13:33:29 73° 284° (WNW) 13:37:46 437.445
50 SAT 26 Sep 13:35:09 13:38:49 74° 283° (WNW) 13:42:27 437.505
DUCHIFAT 1 26 Sep 13:36:38 13:39:10 16° 266° (W) 13:41:43 145.980
QB50P1 26 Sep 13:37:15 13:39:22 14° 267° (W) 13:41:29 145.935-145.965
BUGSAT 1 26 Sep 13:45:01 13:48:40 30° 263° (W) 13:52:17 437.445
Oscar 19 26 Sep 13:52:43 13:57:45 52° 73° (ENE) 14:02:47 437.125/150
PCSat 26 Sep 13:53:22 13:57:01 18° 50° (NE) 14:00:38 145.827
AUBIESAT-1 26 Sep 13:59:49 14:03:07 85° 288° (WNW) 14:06:26 437.475
PHONESAT 2.4 26 Sep 14:06:38 14:09:19 30° 354° (N) 14:11:59 2401.200-2431.200
TISAT 1 26 Sep 14:10:01 14:13:16 22° 96° (E) 14:16:30 437.305
AISAT 26 Sep 14:13:14 14:17:01 29° 290° (WNW) 14:20:46 437.250
SPROUT 26 Sep 14:18:26 14:22:30 46° 286° (WNW) 14:26:34 437.525
UKube-1 26 Sep 14:29:05 14:33:09 42° 287° (WNW) 14:37:11 .
AIST 2 26 Sep 14:32:24 14:36:34 63° 243° (WSW) 14:40:42 435.215
M-CUBED/EXP-1 PRIME 26 Sep 14:36:29 14:38:53 19° 294° (WNW) 14:41:15 437.505
Gurwin Techsat 1B 26 Sep 14:36:33 14:41:47 64° 74° (ENE) 14:47:03 435.225
JAS-2 26 Sep 14:37:53 14:40:12 12° 274° (W) 14:42:36 435.910
ITAMSAT 1 26 Sep 14:43:43 14:47:21 20° 66° (ENE) 14:51:00 435.822/435.867
DX 1 26 Sep 14:55:26 14:58:16 17° 293° (WNW) 15:01:04 434.975-435.025
SO-50 26 Sep 14:57:42 14:58:54 11° 107° (ESE) 15:00:06 436.795
VELOX 1 26 Sep 14:59:48 15:00:26 10° 296° (WNW) 15:01:06 145.980
Cosmos 2491 26 Sep 15:05:57 15:13:41 36° 86° (E) 15:21:26 435.465 / 435.565
AO-7 26 Sep 15:09:47 15:16:47 32° 61° (ENE) 15:23:47 29.400- 29.500
ITUPSAT 1 26 Sep 15:14:17 15:17:57 22° 95° (E) 15:21:38 437.325
YUBILEINY 26 Sep 15:14:28 15:23:10 71° 82° (E) 15:31:48 435.215
Cosmos 2504 26 Sep 15:16:14 15:22:14 25° 73° (ENE) 15:28:29 435.465 / 435.565
SWISSCUBE 26 Sep 15:27:45 15:32:08 35° 98° (E) 15:36:30 437.505
Oscar 19 26 Sep 15:34:10 15:37:18 16° 267° (W) 15:40:27 437.125/150
PCSat 26 Sep 15:35:28 15:40:49 62° 248° (WSW) 15:46:08 145.827
BEESAT 26 Sep 15:40:47 15:45:21 43° 99° (E) 15:49:53 436.000
PHONESAT 2.4 26 Sep 15:43:03 15:45:50 35° 10° (N) 15:48:37 2401.200-2431.200
TISAT 1 26 Sep 15:45:25 15:48:49 25° 290° (WNW) 15:52:13 437.305
Gurwin Techsat 1B 26 Sep 16:19:43 16:22:07 13° 268° (W) 16:24:31 435.225
ITAMSAT 1 26 Sep 16:21:33 16:26:27 44° 261° (W) 16:31:24 435.822/435.867
KKS-1 26 Sep 16:24:43 16:25:48 11° 92° (E) 16:26:52 437.445
SO-50 26 Sep 16:33:56 16:38:46 72° 301° (WNW) 16:43:35 436.795
HORYU 2 26 Sep 16:40:45 16:41:46 11° 64° (ENE) 16:42:47 437.375
AIST 1 26 Sep 16:41:09 16:44:04 18° 75° (ENE) 16:46:58
ITUPSAT 1 26 Sep 16:51:29 16:55:48 34° 289° (WNW) 17:00:06 437.325
AO-7 26 Sep 17:01:02 17:09:07 54° 257° (WSW) 17:17:13 29.400- 29.500
STARS 26 Sep 17:01:47 17:03:59 14° 93° (E) 17:06:10 437.465
Cosmos 2491 26 Sep 17:02:03 17:10:15 43° 284° (WNW) 17:18:34 435.465 / 435.565
SWISSCUBE 26 Sep 17:06:04 17:09:40 21° 292° (WNW) 17:13:16 437.505
Cosmos 2504 26 Sep 17:08:38 17:15:49 53° 269° (W) 17:23:30 435.465 / 435.565
YUBILEINY 26 Sep 17:13:07 17:19:01 21° 279° (W) 17:24:54 435.215
PHONESAT 2.4 26 Sep 17:19:09 17:22:04 56° 206° (SSW) 17:24:59 2401.200-2431.200
BEESAT 26 Sep 17:19:37 17:22:46 18° 294° (WNW) 17:25:54 436.000
MOZHAYETS 4 26 Sep 17:21:20 17:26:00 89° 87° (E) 17:30:39
BRITE-PL 26 Sep 17:40:33 17:45:35 34° 70° (ENE) 17:50:36 437.365/2234.400
GOMX 1 26 Sep 17:40:45 17:43:27 14° 65° (ENE) 17:46:05 467.674
KKS-1 26 Sep 17:58:19 18:02:39 55° 286° (WNW) 18:06:57 437.445
NOAA 15 26 Sep 17:59:13 18:03:21 24° 67° (ENE) 18:07:30 137.62
Cubesat XI-IV 26 Sep 18:09:47 18:13:54 24° 67° (ENE) 18:18:02 437.490
CUTE-I 26 Sep 18:10:23 18:14:33 24° 67° (ENE) 18:18:44 437.470
DOVE 4 26 Sep 18:11:47 18:12:52 11° 65° (ENE) 18:13:57 437.250
HORYU 2 26 Sep 18:13:24 18:17:45 62° 259° (W) 18:22:08 437.375
LilacSat-2 26 Sep 18:17:42 18:20:27 19° 70° (ENE) 18:23:11 437.200
AIST 1 26 Sep 18:17:58 18:21:40 29° 270° (W) 18:25:22
O/OREOS (USA 219) 26 Sep 18:22:14 18:26:49 64° 68° (ENE) 18:31:20 437.305
STARS 26 Sep 18:36:22 18:40:31 43° 287° (WNW) 18:44:38 437.465
CUBESAT XI-V 26 Sep 18:36:51 18:41:33 72° 101° (ESE) 18:46:12 437.345
NOAA 18 26 Sep 18:37:35 18:42:33 37° 69° (ENE) 18:47:31 137.9125
RS-15 26 Sep 18:41:24 18:44:20 11° 94° (E) 18:47:17 29.354- 29.394
GOMX 1 26 Sep 19:15:30 19:20:57 69° 259° (W) 19:26:12 467.674
BRITE-PL 26 Sep 19:19:00 19:23:56 30° 265° (W) 19:28:53 437.365/2234.400
CUSAT 1 26 Sep 19:20:49 19:25:48 29° 85° (E) 19:31:46 437.405
CINEMA 3 26 Sep 19:32:37 19:35:40 18° 69° (ENE) 19:38:40 145.822/145.860
GONETS M04 26 Sep 19:37:37 19:44:16 23° 69° (ENE) 19:50:51
NOAA 15 26 Sep 19:37:58 19:42:51 38° 262° (W) 19:47:48 137.62
HO-68 26 Sep 19:39:49 19:45:58 32° 64° (ENE) 19:52:06 435.675
DOVE 4 26 Sep 19:44:51 19:49:58 78° 258° (WSW) 19:54:51 437.250
Cubesat XI-IV 26 Sep 19:48:48 19:53:42 38° 261° (W) 19:58:38 437.490
CUTE-I 26 Sep 19:49:29 19:54:21 37° 262° (W) 19:59:15 437.470
LilacSat-2 26 Sep 19:51:38 19:54:35 22° 264° (W) 19:57:34 437.200
CUTE 1.7 + AOD 2 26 Sep 20:13:33 20:17:23 35° 73° (ENE) 20:21:15 437.475
CANX-2 26 Sep 20:14:20 20:18:18 42° 74° (ENE) 20:22:19 2200.000
CUBESAT XI-V 26 Sep 20:17:39 20:18:15 10° 297° (WNW) 20:18:52 437.345
SEEDS 26 Sep 20:18:04 20:21:35 27° 71° (ENE) 20:25:09 437.485
NOAA 18 26 Sep 20:18:48 20:23:14 25° 264° (W) 20:27:40 137.9125
Cosmos 2499 26 Sep 20:23:23 20:30:22 38° 77° (ENE) 20:37:47 435.465 / 435.565
DANDE 26 Sep 20:37:31 20:41:56 45° 90° (E) 20:47:49 436.750
AO-85 26 Sep 20:38:07 20:39:36 11° 107° (ESE) 20:41:04 145.980
STRAND 1 26 Sep 20:41:18 20:46:24 61° 101° (ESE) 20:51:29 437.568
RS-15 26 Sep 20:42:58 20:54:16 68° 113° (ESE) 21:06:11 29.354- 29.394
AAUSAT CUBESAT 2 26 Sep 20:44:48 20:48:22 28° 72° (ENE) 20:51:58 437.432
ISS 26 Sep 20:47:46 20:50:45 35° 133° (SE) 20:53:46 145.825
CUBEBUG 2 26 Sep 20:49:03 20:52:48 31° 72° (ENE) 20:56:30 437.445
CUSAT 1 26 Sep 21:01:54 21:07:25 40° 287° (WNW) 21:14:15 437.405
FUNcube-1 26 Sep 21:02:47 21:05:21 16° 68° (ENE) 21:07:55 145.935
CINEMA 3 26 Sep 21:08:23 21:12:34 35° 262° (W) 21:16:36 145.822/145.860
UWE-3 26 Sep 21:10:04 21:13:53 35° 73° (ENE) 21:17:40 435.000/436.395/437.385
